EDT,Max TemperatureF,Mean TemperatureF,Min TemperatureF,Max Dew PointF,MeanDew PointF,Min DewpointF,Max Humidity, Mean Humidity, Min Humidity, Max Sea Level PressureIn, Mean Sea Level PressureIn, Min Sea Level PressureIn, Max VisibilityMiles, Mean VisibilityMiles, Min VisibilityMiles, Max Wind SpeedMPH, Mean Wind SpeedMPH, Max Gust SpeedMPH,PrecipitationIn, CloudCover, Events, WindDirDegrees
2013-9-1,84,77,69,70,68,67,97,80,63,29.87,29.83,29.78,10,10,7,8,3,12,0.00,2,,206
2013-9-2,87,79,70,72,69,66,93,74,55,29.89,29.84,29.79,10,10,5,12,5,15,0.00,4,,228
2013-9-3,79,70,60,68,63,55,97,76,54,30.06,29.94,29.85,10,7,0,12,4,16,0.00,4,Fog,348
2013-9-4,80,67,54,60,56,54,100,71,42,30.16,30.11,30.06,10,8,0,7,1,10,0.00,1,Fog,325
2013-9-5,84,70,56,65,60,54,100,76,51,30.19,30.15,30.12,10,7,1,7,2,12,0.00,2,,316
2013-9-6,80,68,56,61,52,44,93,62,30,30.23,30.17,30.11,10,10,9,8,3,13,0.00,0,,30
2013-9-7,84,68,51,65,57,50,96,66,36,30.12,30.06,29.98,10,9,4,8,1,12,0.00,0,,186
2013-9-8,88,76,64,70,66,62,93,71,48,30.00,29.97,29.94,10,10,4,7,2,9,T,2,,219
2013-9-9,89,77,65,71,67,64,100,75,50,30.08,30.04,30.00,10,4,0,10,2,13,0.00,2,Fog,182
2013-9-10,90,81,71,73,70,68,93,73,52,30.18,30.13,30.06,10,8,4,10,5,14,0.00,1,,194
2013-9-11,90,81,71,74,71,69,93,74,55,30.20,30.12,30.05,10,6,2,12,3,17,0.02,1,Rain,206
2013-9-12,89,78,67,71,69,66,97,78,59,30.03,29.94,29.86,8,4,0,24,6,35,0.51,3,Fog-Rain-Thunderstorm,220
2013-9-13,70,62,54,66,55,46,100,74,48,30.06,29.95,29.85,10,10,2,15,7,21,0.00,6,,327
2013-9-14,70,60,49,50,47,44,96,68,40,30.16,30.12,30.07,10,10,10,9,3,14,0.00,0,,37
2013-9-15,78,62,45,61,53,44,100,75,50,30.17,30.12,30.07,10,9,2,13,2,17,0.00,1,,213
2013-9-16,72,64,55,61,58,54,93,77,61,30.27,30.18,30.07,10,9,4,14,3,17,0.01,7,Rain,26
2013-9-17,77,65,53,56,54,52,100,73,46,30.32,30.26,30.17,10,7,0,13,5,16,0.00,2,Fog,67
2013-9-18,67,61,55,63,59,54,93,86,78,30.21,30.16,30.12,10,7,2,12,3,15,0.01,6,Rain,168
2013-9-19,76,68,60,70,64,59,100,91,82,30.14,30.10,30.02,10,4,0,7,2,8,0.21,6,Fog-Rain,129
2013-9-20,86,77,67,68,66,64,100,76,51,30.05,29.97,29.83,10,6,0,12,4,16,0.00,5,Fog,192
2013-9-21,70,64,57,66,63,57,100,88,76,29.84,29.76,29.69,10,5,0,16,3,26,0.94,6,Fog-Rain,221
2013-9-22,68,60,51,55,52,49,96,78,59,30.01,29.93,29.83,10,10,5,8,2,13,0.00,4,,10
2013-9-23,69,58,47,52,49,46,100,74,47,30.11,30.06,30.01,10,8,0,12,4,16,0.00,0,Fog,38
2013-9-24,76,61,46,58,51,44,93,72,50,30.09,30.03,29.93,10,8,1,7,3,10,0.00,0,,61
2013-9-25,75,64,53,63,58,52,100,79,57,29.93,29.90,29.87,10,6,0,6,1,9,T,1,Fog,325
2013-9-26,77,67,56,63,60,57,100,85,70,30.07,30.00,29.91,10,4,0,7,1,9,0.00,4,Fog,147
2013-9-27,79,67,54,58,54,48,100,68,36,30.18,30.12,30.07,10,5,0,7,1,10,0.00,2,Fog,65
2013-9-28,81,65,48,58,52,46,100,72,43,30.22,30.15,30.10,10,5,0,8,1,12,0.00,0,Fog,117
2013-9-29,76,66,56,62,58,53,93,77,60,30.11,30.07,30.01,10,10,5,9,2,13,0.00,3,,183
2013-9-30,76,67,57,63,59,55,100,82,64,30.08,30.03,29.98,10,4,0,7,1,10,0.02,7,Fog-Rain,180